Location: Juzet
(42.9779°N, 0.7597°E)
Time: 18:04:55
(UTC+00:00)

NOSS 7 (D) - Pass Details

Date: 14 July 2020
Orbit: 307 x 617 km, 63.3° (Epoch: 13 August)

Event Time Altitude Azimuth Distance (km) Brightness Sun altitude
Rises 02:09:52 0° 326° (NW) 2,107 11.1 -19.1°
Reaches altitude 10° 02:11:46 10° 328° (NNW) 1,301 10.1 -18.9°
Maximum altitude 02:14:36 70° 53° (NE) 395 7.2 -18.6°
Enters shadow 02:15:48 33° 129° (SE) 661 8.1 -18.5°
